Location: Colebrook
(42.0017°N, 73.0973°W)
Time: 22:07:38
(UTC-04:00)

N. Korean satellite - Pass Details

Date: 29 September 2021
Orbit: 450 x 495 km, 97.3° (Epoch: 22 October)

Event Time Altitude Azimuth Distance (km) Brightness Sun altitude
Rises 05:30:25 0° 24° (NNE) 2,544 10.7 -15.1°
Reaches altitude 10° 05:32:43 10° 38° (NE) 1,667 10.0 -14.7°
Maximum altitude 05:35:46 26° 96° (E) 996 9.0 -14.1°
Drops below altitude 10° 05:38:50 10° 154° (SSE) 1,674 9.5 -13.5°
Sets 05:41:09 0° 167° (SSE) 2,555 10.3 -13.1°
